DELTA 1 DEB, 26833

Orbit data source: Space-Track

DELTA 1 DEB, 26833 is space debris in SSO originally from a launch on Thu, 12 Jun 1975 UTC launched from the Air Force Western Test Range (AFWTR). Debris objects in space refer to the collection of defunct objects orbiting the Earth. Examples of debris include non-operational satellites, rocket bodies, and fragments generated from explosions, collisions, or faulty payload assembly.

Loading next visibility...
Identifier
26833, 1975-052KM
Orbit
SSO
Country
Flag of USUS
Related business
Manufacturer
Unknown
Mission
Spacecraft
Bus & Motor
Unknown
Mass
Unknown
Launch date (UTC)
1975-06-12 (50 years ago)
Launch vehicle
Unknown
Launch site
Air Force Western Test Range (AFWTR)
Object type
Payload
Rocket body
Debris
Shape & HBR
Unknown shape, 0.1 m
Radar Cross Section
Small (<0.1 m²)

Expand to show TLE details & history
Last TLE update: 1 day ago

TLE from 1 day ago
0 DELTA 1 DEB
1 26833U 75052KM  25306.16034764  .00000199  00000-0  84369-3 0  9990
2 26833  99.7097 260.3848 0367932  97.4709 284.9561 12.73554443620733
Epoch: 2025-11-02T03:50Z
TLE epoch observation values (Epoch: 2025-11-02T03:50:54.036Z)
Latitude
18.03083°
Longitude
157.80268°
Altitude
1,305.998 km
Speed
7.235 km/s
True Right ascension
17h 08m 49s
True Declination
17° 56' 13"
Sunlit
Object was in daylight at epoch
Visualization orbit readout
Latitude
Unknown
Longitude
Unknown
Altitude
Unknown
Speed
Unknown
Apparent Right ascension
Unknown
Apparent Declination
Unknown
Sunlit
N/A
Visualization observer readout
Local Sidereal Time
08:37:18
Azimuth
Unknown
Elevation
Unknown
Doppler factor
Unknown
Orbital elements
Apogee altitude
1,649.785 km
Perigee altitude
1,080.003 km
Semi-major axis
7,743.031 km
Eccentricity
0.03679
Inclination
99.7097°
RAAN
260.3848°
Arg. of periapsis
97.4709°
True anomaly
280.83739°
Mean anomaly
284.9561°
Eccentric anomaly
282.90122°
Mean motion
3.18549 °/min
Orbital period
113.01 mins
BSTAR
0.00084369
Loading maneuver chart data...
Computing Atmospheric mass density...

Documentation

Showing up to 5 results
|